Location: Climax
(33.2048°N, 96.4497°W)
Time: 07:33:06
(UTC+00:00)

SL-4 R/B - Pass Details

Date: 12 July 2022
Orbit: 425 x 653 km, 51.6° (Epoch: 14 August)

Event Time Altitude Azimuth Distance (km) Brightness Sun altitude
Rises 08:44:02 0° 328° (NNW) 2,520 5.7 -26.4°
Reaches altitude 10° 08:46:48 10° 351° (N) 1,685 5.0 -26.1°
Maximum altitude 08:49:15 16° 31° (NNE) 1,379 4.9 -25.8°
Drops below altitude 10° 08:51:49 10° 71° (ENE) 1,770 5.3 -25.5°
Sets 08:54:49 0° 93° (E) 2,715 6.0 -25.1°
